Location: The Saddle
(36.8333°N, 80.3417°W)
Time: 12:41:14
(UTC-04:00)

Courier 1B Rocket - Visible Passes

Search period start: 20 September 2024 00:00
Search period end: 30 September 2024 00:00
Orbit: 920 x 1201 km, 28.2° (Epoch: 19 September)

Date Brightness Start Highest point End Pass type
(mag) Time Alt. Az. Time Alt. Az. Time Alt. Az.
20 Sep 7.0 19:52:29 10° WSW 19:57:32 22° SSW 20:02:49 10° SSE visible
21 Sep 7.5 20:47:32 10° SW 20:49:15 11° SSW 20:51:00 10° SSW visible
22 Sep 7.3 19:44:29 10° WSW 19:48:15 15° SSW 19:52:09 10° S visible
